CW8045 Weather Reports


time (UTC)temp
C
wind
direction
speed
KPH
gust
KPH
rain 1hr
cm
rain 24hr
cm
rain mn
cm
humidity
%
barometer
mb
20260510063603 12 30 16.1 37.0 0.00 0.00 0.00 79 1012.8
20260510062724 12 36 14.5 37.0 0.00 0.00 0.00 80 1012.8
20260510061803 12 34 17.7 35.4 0.00 0.00 0.00 81 1012.8
20260510060923 12 32 16.1 35.4 0.00 0.00 0.00 83 1012.9
20260510060002 11 30 12.9 33.8 0.00 0.00 0.00 85 1013.0
20260510055402 11 30 12.9 33.8 0.00 0.00 0.00 85 1012.8
20260510054502 11 33 12.9 30.6 0.00 0.00 0.00 85 1012.9
20260510053602 11 26 12.9 29.0 0.00 0.00 0.00 86 1012.9
20260510052702 11 21 12.9 29.0 0.00 0.00 0.00 86 1013.0
20260510051802 11 22 11.3 25.7 0.00 0.00 0.00 87 1012.9
20260510050902 10 23 11.3 29.0 0.00 0.00 0.00 87 1012.9
20260510050002 10 27 11.3 22.5 0.00 0.00 0.00 87 1012.9
20260510045402 10 17 11.3 24.1 0.00 0.00 0.00 86 1012.9
20260510044502 10 19 9.7 19.3 0.00 0.00 0.00 86 1012.9
20260510043603 10 16 9.7 17.7 0.00 0.00 0.00 85 1012.9
20260510042723 10 26 9.7 22.5 0.00 0.00 0.00 85 1013.0
20260510041803 10 29 9.7 22.5 0.00 0.00 0.00 83 1013.0
20260510040924 10 21 9.7 22.5 0.00 0.00 0.00 83 1013.0
20260510040002 10 27 9.7 22.5 0.00 0.00 0.00 83 1013.0
20260510035402 10 30 9.7 19.3 0.00 0.00 0.00 83 1013.0
20260510034502 10 26 9.7 19.3 0.00 0.00 0.00 82 1013.1
20260510033602 10 25 9.7 20.9 0.00 0.00 0.00 82 1013.1
20260510032702 10 29 9.7 19.3 0.00 0.00 0.00 82 1013.2
20260510031802 11 32 9.7 17.7 0.00 0.00 0.00 81 1013.1
20260510030902 11 40 9.7 19.3 0.00 0.00 0.00 80 1013.2
20260510030002 11 41 11.3 22.5 0.00 0.00 0.00 80 1013.2
20260510025403 11 37 11.3 22.5 0.00 0.00 0.00 80 1013.2
20260510024502 11 36 11.3 29.0 0.00 0.00 0.00 79 1013.2
20260510023602 11 32 11.3 20.9 0.00 0.00 0.00 79 1013.1
20260510022702 11 33 9.7 19.3 0.00 0.00 0.00 79 1013.0
20260510021823 11 31 9.7 25.7 0.00 0.00 0.00 78 1013.1
20260510020902 11 37 11.3 25.7 0.00 0.00 0.00 79 1013.2
20260510020024 11 38 11.3 17.7 0.00 0.00 0.00 78 1013.2
20260510015402 11 37 11.3 20.9 0.00 0.00 0.00 78 1013.2
20260510014523 11 36 9.7 19.3 0.00 0.00 0.00 77 1013.3
20260510013603 11 37 9.7 20.9 0.00 0.00 0.00 77 1013.4
20260510012703 11 36 11.3 19.3 0.00 0.00 0.00 76 1013.4
20260510011802 11 38 9.7 19.3 0.00 0.00 0.00 76 1013.5
20260510010902 11 36 9.7 19.3 0.00 0.00 0.00 75 1013.6
20260510010023 11 33 9.7 19.3 0.00 0.00 0.00 75 1013.6
20260510005402 11 36 9.7 20.9 0.00 0.00 0.00 75 1013.7
20260510004502 11 37 8.0 20.9 0.00 0.00 0.00 74 1014.0
20260510003623 11 32 9.7 20.9 0.00 0.00 0.00 74 1014.1
20260510002702 11 37 8.0 16.1 0.00 0.00 0.00 74 1014.2
20260510001802 11 37 8.0 16.1 0.00 0.00 0.00 74 1014.3
20260510000923 11 40 8.0 16.1 0.00 0.00 0.00 74 1014.4
20260510000003 11 34 8.0 14.5 0.00 0.00 0.00 74 1014.4
20260509235423 11 32 8.0 14.5 0.00 0.00 0.00 74 1014.3
20260509234502 11 31 8.0 19.3 0.00 0.00 0.00 73 1014.3
20260509233602 11 39 9.7 17.7 0.00 0.00 0.00 73 1014.3
20260509232702 11 38 9.7 16.1 0.00 0.00 0.00 72 1014.4
20260509231802 12 40 9.7 20.9 0.00 0.00 0.00 72 1014.6
20260509230903 12 39 9.7 19.3 0.00 0.00 0.00 71 1014.7
20260509230002 12 31 8.0 19.3 0.00 0.00 0.00 72 1014.8
20260509225402 12 28 8.0 19.3 0.00 0.00 0.00 72 1014.7
20260509224502 12 28 8.0 17.7 0.00 0.00 0.00 72 1014.7
20260509223602 12 31 8.0 14.5 0.00 0.00 0.00 72 1014.6
20260509222723 12 34 8.0 16.1 0.00 0.00 0.00 72 1014.6
20260509221802 12 26 8.0 20.9 0.00 0.00 0.00 72 1014.6
20260509220902 12 29 8.0 16.1 0.00 0.00 0.00 72 1014.5
20260509220024 12 23 8.0 17.7 0.00 0.00 0.00 72 1014.5
20260509215403 12 24 8.0 17.7 0.00 0.00 0.00 72 1014.6
20260509214502 12 16 8.0 16.1 0.00 0.00 0.00 73 1014.5
20260509213602 12 33 6.4 14.5 0.00 0.00 0.00 73 1014.5
20260509212702 12 30 6.4 14.5 0.00 0.00 0.00 73 1014.6
20260509211802 12 32 8.0 14.5 0.00 0.00 0.00 73 1014.7
20260509210923 13 27 6.4 16.1 0.00 0.00 0.00 73 1014.6
20260509210002 13 30 6.4 14.5 0.00 0.00 0.00 73 1014.6
20260509205402 13 21 6.4 14.5 0.00 0.00 0.00 72 1014.6
20260509204502 13 22 6.4 16.1 0.00 0.00 0.00 72 1014.7
20260509203603 13 20 6.4 16.1 0.00 0.00 0.00 71 1014.5
20260509202724 14 15 8.0 17.7 0.00 0.00 0.00 70 1014.5
20260509201802 14 10 11.3 19.3 0.00 0.00 0.00 70 1014.4
20260509200902 14 7 11.3 19.3 0.00 0.00 0.00 69 1014.3
20260509200023 15 7 11.3 20.9 0.00 0.00 0.00 69 1014.3
20260509195403 15 5 11.3 20.9 0.00 0.00 0.00 68 1014.2
20260509194502 15 9 11.3 20.9 0.00 0.00 0.00 68 1014.1
20260509193603 15 9 11.3 19.3 0.00 0.00 0.00 68 1014.0
20260509192702 16 11 11.3 17.7 0.00 0.00 0.00 67 1013.8
20260509191802 16 12 11.3 20.9 0.00 0.00 0.00 67 1013.8
20260509190923 16 10 12.9 20.9 0.00 0.00 0.00 65 1013.7
20260509190002 16 8 12.9 29.0 0.00 0.00 0.00 65 1013.7
20260509185402 17 9 12.9 29.0 0.00 0.00 0.00 64 1013.7
20260509184523 17 11 12.9 25.7 0.00 0.00 0.00 64 1013.6
20260509183602 17 10 14.5 30.6 0.00 0.00 0.00 63 1013.6
20260509182704 18 6 14.5 25.7 0.00 0.00 0.00 62 1013.6
20260509181802 18 6 12.9 24.1 0.00 0.00 0.00 61 1013.6
20260509180902 19 7 12.9 24.1 0.00 0.00 0.00 61 1013.6
20260509180002 20 8 14.5 30.6 0.00 0.00 0.00 59 1013.5
20260509175402 20 9 11.3 20.9 0.00 0.00 0.00 60 1013.6
20260509174502 20 34 6.4 16.1 0.00 0.00 0.00 57 1013.6
20260509173623 20 45 9.7 20.9 0.00 0.00 0.00 56 1013.5
20260509172703 20 46 8.0 14.5 0.00 0.00 0.00 55 1013.4
20260509171803 21 43 9.7 16.1 0.00 0.00 0.00 53 1013.3
20260509170902 21 46 9.7 14.5 0.00 0.00 0.00 56 1013.4
20260509170002 21 55 8.0 14.5 0.00 0.00 0.00 56 1013.4
20260509165423 21 54 8.0 14.5 0.00 0.00 0.00 54 1013.4
20260509164503 21 44 8.0 14.5 0.00 0.00 0.00 54 1013.3
20260509163603 21 37 9.7 16.1 0.00 0.00 0.00 54 1013.4
20260509162702 21 41 8.0 16.1 0.00 0.00 0.00 53 1013.4
20260509161802 21 33 8.0 17.7 0.00 0.00 0.00 54 1013.4
20260509160902 21 55 8.0 14.5 0.00 0.00 0.00 55 1013.4
20260509160002 21 60 8.0 16.1 0.00 0.00 0.00 55 1013.6
20260509155402 21 59 8.0 17.7 0.00 0.00 0.00 54 1013.5
20260509154502 21 53 8.0 20.9 0.00 0.00 0.00 55 1013.6
20260509153602 21 64 11.3 20.9 0.00 0.00 0.00 52 1013.7
20260509152702 22 53 12.9 24.1 0.00 0.00 0.00 55 1013.8
20260509151802 22 40 8.0 19.3 0.00 0.00 0.00 53 1013.8
20260509150923 21 66 9.7 16.1 0.00 0.00 0.00 53 1013.9
20260509150002 21 63 8.0 19.3 0.00 0.00 0.00 55 1013.8
20260509145402 21 75 9.7 19.3 0.00 0.00 0.00 57 1013.8
20260509144502 21 69 11.3 20.9 0.00 0.00 0.00 57 1013.9
20260509143602 21 69 11.3 25.7 0.00 0.00 0.00 56 1013.9
20260509142703 21 72 12.9 22.5 0.00 0.00 0.00 55 1014.0
20260509141802 21 74 9.7 19.3 0.00 0.00 0.00 58 1013.9
20260509140902 21 73 11.3 17.7 0.00 0.00 0.00 55 1014.1
20260509140002 21 65 9.7 19.3 0.00 0.00 0.00 57 1014.0
20260509135402 20 65 11.3 20.9 0.00 0.00 0.00 59 1014.0
20260509134502 20 61 8.0 20.9 0.00 0.00 0.00 58 1014.2
20260509133602 20 74 9.7 16.1 0.00 0.00 0.00 57 1014.2
20260509132702 21 68 11.3 17.7 0.00 0.00 0.00 56 1014.2
20260509131802 20 59 11.3 19.3 0.00 0.00 0.00 61 1014.3
20260509130924 20 57 11.3 19.3 0.00 0.00 0.00 57 1014.3
20260509130002 20 59 9.7 16.1 0.00 0.00 0.00 57 1014.4
20260509125423 20 63 11.3 16.1 0.00 0.00 0.00 57 1014.4
20260509124502 20 81 11.3 22.5 0.00 0.00 0.00 58 1014.5
20260509123603 20 69 11.3 19.3 0.00 0.00 0.00 58 1014.6
20260509122702 20 71 11.3 22.5 0.00 0.00 0.00 57 1014.8
20260509121803 20 84 9.7 16.1 0.00 0.00 0.00 60 1014.6
20260509120902 21 87 12.9 24.1 0.00 0.00 0.00 56 1014.7
20260509120002 21 94 11.3 19.3 0.00 0.00 0.00 57 1014.7
20260509115423 21 82 11.3 19.3 0.00 0.00 0.00 58 1014.8
20260509114503 21 69 11.3 20.9 0.00 0.00 0.00 56 1014.9
20260509113602 20 67 12.9 22.5 0.00 0.00 0.00 60 1015.0
20260509112702 20 81 12.9 20.9 0.00 0.00 0.00 60 1015.1
20260509111802 20 53 12.9 24.1 0.00 0.00 0.00 60 1015.2
20260509110923 20 54 12.9 24.1 0.00 0.00 0.00 60 1015.2
20260509110002 20 60 12.9 19.3 0.00 0.00 0.00 63 1015.3
20260509105402 20 58 12.9 20.9 0.00 0.00 0.00 61 1015.3
20260509104504 20 65 12.9 22.5 0.00 0.00 0.00 63 1015.5
20260509103603 20 54 14.5 24.1 0.00 0.00 0.00 63 1015.6
20260509102723 20 47 12.9 20.9 0.00 0.00 0.00 63 1015.7
20260509101803 20 58 11.3 20.9 0.00 0.00 0.00 64 1015.7
20260509100902 20 64 11.3 20.9 0.00 0.00 0.00 62 1015.8
20260509100002 19 47 11.3 17.7 0.00 0.00 0.00 66 1015.7
20260509095402 19 53 11.3 22.5 0.00 0.00 0.00 65 1015.7
20260509094502 19 61 11.3 19.3 0.00 0.00 0.00 66 1015.7
20260509093602 19 59 11.3 19.3 0.00 0.00 0.00 67 1015.8
20260509092702 18 50 9.7 19.3 0.00 0.00 0.00 68 1015.6
20260509091803 18 51 9.7 17.7 0.00 0.00 0.00 67 1015.9
20260509090902 18 56 9.7 16.1 0.00 0.00 0.00 66 1015.8
20260509090003 18 58 8.0 16.1 0.00 0.00 0.00 69 1015.8
20260509085402 18 54 8.0 16.1 0.00 0.00 0.00 70 1015.7
20260509084502 18 64 9.7 17.7 0.00 0.00 0.00 69 1015.8
20260509083602 17 59 9.7 17.7 0.00 0.00 0.00 69 1015.9
20260509082702 17 61 9.7 16.1 0.00 0.00 0.00 70 1015.8
20260509081802 17 59 9.7 14.5 0.00 0.00 0.00 71 1015.8
20260509080902 16 48 9.7 16.1 0.00 0.00 0.00 72 1015.9
20260509080023 16 57 9.7 16.1 0.00 0.00 0.00 72 1015.9
20260509075424 16 64 9.7 16.1 0.00 0.00 0.00 72 1016.0
20260509074502 16 67 8.0 16.1 0.00 0.00 0.00 73 1015.9
20260509073603 15 66 8.0 16.1 0.00 0.00 0.00 73 1015.9
20260509072704 15 64 8.0 16.1 0.00 0.00 0.00 73 1015.9
20260509071823 15 68 8.0 14.5 0.00 0.00 0.00 75 1015.9
20260509070902 15 63 8.0 14.5 0.00 0.00 0.00 76 1016.0
20260509070003 14 63 8.0 14.5 0.00 0.00 0.00 78 1016.0
20260509065403 13 74 9.7 14.5 0.00 0.00 0.00 79 1015.9
20260509064504 13 76 8.0 14.5 0.00 0.00 0.00 83 1016.0